Volver al catálogo

STARLINK-5443

ActivoComunicacionesVLEO
NORAD 54781·PAYLOAD·🇺🇸 United States

Lanzado Dec 17, 2022 desde Cape Canaveral Space Force Station

Loading…

Próximos Pases (próximas 24 horas)

TLE

ActualizadoSource: CelesTrak SupGP

Época: Sep 15, 2026, 01:36 UTC

1 54781C 22175Z   26258.06715278 -.00016465  00000+0 -48637-3 0  2583
2 54781  53.1577 245.0478 0001297  92.1181  84.1773 15.34405665    16

Sigue STARLINK-5443 en tiempo real con AllMySat

Download on the App Store